Flag for Germany Weather past 2 weeks in Stralsund, Mecklenburg-Western Pomerania, Germany

Now
51 °F

Light rain. Overcast.


Feels Like: 50 °F
Forecast: 47 / 61 °F
Wind: 3 mph from West

Location: Greifswald

Current Time: May 28, 2015 at 8:52:57 PM

Latest Report: May 28, 2015 at 8:00 PM


Visibility: 19 mi

Pressure: 29.85 "Hg

Humidity: 90%

Dew point: 48 °F

Location of StralsundLocation

Historic Weather in Stralsund — Graph

°F

Stralsund temperature yesterday

Maximum temperature yesterday: 55 °F (at 4:00 PM)
Minimum temperature yesterday: 48 °F (at 7:00 AM)
Average temperature yesterday: 52 °F

Past Weeks' High & Low Weather Summary

 TemperatureHumidityPressure
High65 °F (May 28, 2:00 PM)97% (May 20, 4:00 AM)30.31 "Hg (May 20, 4:00 AM)
Low40 °F (May 20, 5:00 AM)43% (May 17, 2:00 PM)29.57 "Hg (May 19, 5:00 AM)
Average52 °F74%30.00 "Hg
* Reported May 13 7:00 PM — May 28 7:00 PM, Stralsund, Weather by CustomWeather, © 2015

Note: Actual official high and low records may vary slightly from our data, if they occured in-between our weather recording intervals... More about our weather records

Advertising

Stralsund weather history for previous 24 hours

 ConditionsComfort  
Time TempWeatherWind HumidityBarometerVisibility
7:00 PM
Thu, May 28
51 °FOvercast.5 mph91%29.85 "Hg16 mi
6:00 PM51 °FLight rain. Overcast.7 mph91%29.85 "Hg2 mi
4:00 PM64 °FOvercast.6 mph54%29.81 "Hg19 mi
3:00 PM61 °FSprinkles. Overcast.7 mph62%29.83 "Hg16 mi
2:00 PM65 °FOvercast.7 mph47%29.83 "Hg19 mi
1:00 PM63 °FOvercast.7 mph50%29.85 "Hg19 mi
12:00 PM62 °FOvercast.7 mph49%29.87 "Hg16 mi
10:00 AM59 °FOvercast.7 mph53%29.90 "Hg28 mi
9:00 AM55 °FOvercast.7 mph64%29.92 "Hg19 mi
8:00 AM52 °FOvercast.3 mph73%29.94 "Hg25 mi
7:00 AM49 °FOvercast.2 mph76%29.95 "Hg22 mi
6:00 AM48 °FOvercast.3 mph78%29.97 "Hg25 mi
4:00 AM45 °FPassing clouds.2 mph87%30.01 "Hg22 mi
3:00 AM46 °FPassing clouds.2 mph85%30.02 "Hg25 mi
2:00 AM45 °FClear.1 mph87%30.03 "Hg25 mi
1:00 AM45 °FClear.2 mph86%30.05 "Hg31 mi
12:00 AM47 °FClear.2 mph79%30.07 "Hg31 mi
11:00 PM
Wed, May 27
49 °FClear.2 mph77%30.07 "Hg31 mi
10:00 PM51 °FPassing clouds.3 mph66%30.08 "Hg37 mi
9:00 PM53 °FPassing clouds.3 mph62%30.08 "Hg37 mi
8:00 PM55 °FScattered clouds.5 mph59%30.07 "Hg31 mi
Weather by CustomWeather, © 2015

See weather overviewHow to use our weather pages